When you browse on this site, cookies collect data to enhance your experience and personalize the content and advertising you see.
Visit our Privacy Policy to learn more. By continuing to use the site, you agree to this use of cookies and data.
  • In Italy
  • List of Countries
  • For 7 days
  • Water Temperature
  • Satellite Maps
  • Weather Map
  • Weather Widgets
  • user-avatar
    Login

    Hourly Weather Vanadzor

    Today, 18 January, Friday

    Time Temperature Precipitation Wind Pressure Humidity
    00:00 -8°C° 0 mm 1 mps 629 mmHg 83%
    01:00 -8°C° 0 mm 1 mps 629 mmHg 82%
    02:00 -8°C° 0 mm 1 mps 630 mmHg 80%
    03:00 -8°C° 0 mm 1 mps 630 mmHg 78%
    04:00 -8°C° 0 mm 1 mps 630 mmHg 77%
    05:00 -8°C° 0 mm 1 mps 631 mmHg 76%
    06:00 -9°C° 0 mm 1 mps 631 mmHg 75%
    07:00 -8°C° 0 mm 1 mps 632 mmHg 75%
    08:00 -7°C° 0 mm 1 mps 632 mmHg 74%
    09:00 -6°C° 0 mm 1 mps 633 mmHg 74%
    10:00 -4°C° 0 mm 1 mps 633 mmHg 72%
    11:00 -3°C° 0 mm 1 mps 634 mmHg 69%
    12:00 -1°C° 0 mm 1 mps 634 mmHg 67%
    13:00 -1°C° 0 mm 1 mps 634 mmHg 69%
    14:00 -1°C° 0 mm 1 mps 634 mmHg 71%
    15:00 -1°C° 0 mm 1 mps 633 mmHg 73%
    16:00 -3°C° 0 mm 1 mps 633 mmHg 75%
    17:00 -6°C° 0 mm 1 mps 633 mmHg 76%
    18:00 -8°C° 0 mm 2 mps 633 mmHg 78%
    19:00 -9°C° 0 mm 2 mps 633 mmHg 77%
    20:00 -9°C° 0 mm 2 mps 634 mmHg 75%
    21:00 -9°C° 0 mm 2 mps 634 mmHg 73%
    22:00 -9°C° 0 mm 2 mps 634 mmHg 72%
    23:00 -10°C° 0 mm 2 mps 634 mmHg 71%

    Tomorrow, 19 January, Saturday

    Time Temperature Precipitation Wind Pressure Humidity
    00:00 -10°C° 0 mm 2 mps 634 mmHg 71%
    01:00 -10°C° 0 mm 2 mps 634 mmHg 71%
    02:00 -10°C° 0 mm 2 mps 634 mmHg 71%
    03:00 -10°C° 0 mm 2 mps 634 mmHg 71%
    04:00 -10°C° 0 mm 2 mps 634 mmHg 72%
    05:00 -12°C° 0 mm 3 mps 633 mmHg 72%
    06:00 -12°C° 0 mm 3 mps 633 mmHg 72%
    07:00 -10°C° 0 mm 3 mps 634 mmHg 72%
    08:00 -9°C° 0 mm 3 mps 634 mmHg 72%
    09:00 -9°C° 0 mm 3 mps 634 mmHg 72%
    10:00 -7°C° 0 mm 3 mps 634 mmHg 70%
    11:00 -5°C° 0 mm 3 mps 634 mmHg 69%
    12:00 -4°C° 0 mm 3 mps 634 mmHg 68%
    13:00 -3°C° 0 mm 2 mps 634 mmHg 69%
    14:00 -3°C° 0 mm 2 mps 634 mmHg 69%
    15:00 -3°C° 0 mm 2 mps 633 mmHg 70%
    16:00 -5°C° 0 mm 2 mps 633 mmHg 68%
    17:00 -7°C° 0 mm 2 mps 633 mmHg 67%
    18:00 -9°C° 0 mm 2 mps 633 mmHg 65%
    19:00 -9°C° 0 mm 2 mps 633 mmHg 62%
    20:00 -10°C° 0 mm 3 mps 633 mmHg 59%
    21:00 -12°C° 0 mm 3 mps 633 mmHg 55%
    22:00 -10°C° 0 mm 3 mps 633 mmHg 56%
    23:00 -10°C° 0 mm 3 mps 633 mmHg 56%

    Day after tomorrow, 20 January, Sunday

    Time Temperature Precipitation Wind Pressure Humidity
    00:00 -10°C° 0 mm 3 mps 633 mmHg 56%
    01:00 -9°C° 0 mm 2 mps 634 mmHg 57%
    02:00 -9°C° 0 mm 2 mps 634 mmHg 58%
    03:00 -8°C° 0 mm 2 mps 634 mmHg 59%
    04:00 -8°C° 0 mm 2 mps 634 mmHg 60%
    05:00 -8°C° 0 mm 2 mps 634 mmHg 61%
    06:00 -8°C° 0 mm 2 mps 634 mmHg 62%
    07:00 -7°C° 0 mm 2 mps 634 mmHg 63%
    08:00 -7°C° 0 mm 2 mps 635 mmHg 64%
    09:00 -6°C° 0 mm 2 mps 635 mmHg 65%
    10:00 -5°C° 0 mm 2 mps 635 mmHg 64%
    11:00 -3°C° 0 mm 2 mps 635 mmHg 62%
    12:00 -2°C° 0 mm 2 mps 636 mmHg 61%
    13:00 -2°C° 0 mm 2 mps 635 mmHg 62%
    14:00 0°C° 0 mm 1 mps 635 mmHg 64%
    15:00 0°C° 0 mm 1 mps 635 mmHg 65%
    16:00 -2°C° 0 mm 1 mps 634 mmHg 65%
    17:00 -3°C° 0 mm 1 mps 634 mmHg 64%
    18:00 -7°C° 0 mm 2 mps 634 mmHg 64%
    19:00 -7°C° 0 mm 2 mps 634 mmHg 62%
    20:00 -8°C° 0 mm 2 mps 634 mmHg 59%
    21:00 -8°C° 0 mm 2 mps 635 mmHg 57%
    22:00 -8°C° 0 mm 2 mps 634 mmHg 56%
    23:00 -9°C° 0 mm 2 mps 634 mmHg 55%

    21 January, Monday

    Time Temperature Precipitation Wind Pressure Humidity
    00:00 -9°C° 0 mm 2 mps 634 mmHg 54%
    01:00 -9°C° 0 mm 2 mps 634 mmHg 54%
    02:00 -9°C° 0 mm 2 mps 634 mmHg 55%
    03:00 -10°C° 0 mm 2 mps 634 mmHg 56%
    04:00 -10°C° 0 mm 2 mps 634 mmHg 57%
    05:00 -10°C° 0 mm 2 mps 634 mmHg 58%
    06:00 -10°C° 0 mm 2 mps 634 mmHg 59%
    07:00 -9°C° 0 mm 2 mps 634 mmHg 61%
    08:00 -8°C° 0 mm 2 mps 634 mmHg 63%
    09:00 -8°C° 0 mm 2 mps 634 mmHg 64%
    10:00 -6°C° 0 mm 2 mps 634 mmHg 63%
    11:00 -5°C° 0 mm 2 mps 634 mmHg 62%
    12:00 -3°C° 0 mm 2 mps 634 mmHg 61%
    13:00 -3°C° 0 mm 2 mps 634 mmHg 62%
    14:00 -3°C° 0 mm 2 mps 634 mmHg 64%
    15:00 -3°C° 0 mm 2 mps 633 mmHg 65%
    16:00 -5°C° 0 mm 2 mps 633 mmHg 65%
    17:00 -7°C° 0 mm 2 mps 633 mmHg 65%
    18:00 -8°C° 0 mm 2 mps 632 mmHg 65%
    19:00 -9°C° 0 mm 2 mps 632 mmHg 62%
    20:00 -10°C° 0 mm 3 mps 632 mmHg 60%
    21:00 -10°C° 0 mm 3 mps 632 mmHg 58%
    22:00 -10°C° 0 mm 3 mps 632 mmHg 59%
    23:00 -12°C° 0 mm 3 mps 632 mmHg 60%

    22 January, Tuesday

    Time Temperature Precipitation Wind Pressure Humidity
    00:00 -12°C° 0 mm 3 mps 632 mmHg 61%
    01:00 -12°C° 0 mm 3 mps 632 mmHg 62%
    02:00 -12°C° 0 mm 3 mps 632 mmHg 63%
    03:00 -12°C° 0 mm 3 mps 632 mmHg 64%
    04:00 -10°C° 0 mm 3 mps 632 mmHg 64%
    05:00 -10°C° 0 mm 3 mps 632 mmHg 64%
    06:00 -10°C° 0 mm 3 mps 632 mmHg 64%
    07:00 -10°C° 0 mm 3 mps 632 mmHg 65%
    08:00 -9°C° 0 mm 3 mps 633 mmHg 67%
    09:00 -8°C° 0 mm 3 mps 633 mmHg 68%
    10:00 -6°C° 0 mm 3 mps 633 mmHg 68%
    11:00 -5°C° 0 mm 3 mps 633 mmHg 69%
    12:00 -2°C° 0 mm 3 mps 633 mmHg 69%
    13:00 -2°C° 0 mm 3 mps 632 mmHg 69%
    14:00 -2°C° 0 mm 3 mps 632 mmHg 70%
    15:00 -2°C° 0 mm 2 mps 632 mmHg 71%
    16:00 -4°C° 0 mm 2 mps 632 mmHg 71%
    17:00 -6°C° 0 mm 2 mps 632 mmHg 71%
    18:00 -7°C° 0 mm 2 mps 632 mmHg 71%
    19:00 -8°C° 0 mm 2 mps 632 mmHg 70%
    20:00 -8°C° 0 mm 2 mps 632 mmHg 68%
    21:00 -8°C° 0 mm 2 mps 632 mmHg 67%
    22:00 -8°C° 0 mm 2 mps 632 mmHg 68%
    23:00 -9°C° 0 mm 2 mps 632 mmHg 68%

    23 January, Wednesday

    Time Temperature Precipitation Wind Pressure Humidity
    00:00 -9°C° 0 mm 2 mps 632 mmHg 69%
    01:00 -9°C° 0 mm 2 mps 632 mmHg 69%
    02:00 -9°C° 0 mm 2 mps 632 mmHg 69%
    03:00 -9°C° 0 mm 2 mps 632 mmHg 70%
    04:00 -9°C° 0 mm 2 mps 632 mmHg 70%
    05:00 -10°C° 0 mm 2 mps 632 mmHg 70%
    06:00 -10°C° 0 mm 2 mps 632 mmHg 70%
    07:00 -9°C° 0 mm 2 mps 632 mmHg 70%
    08:00 -8°C° 0 mm 2 mps 633 mmHg 70%
    09:00 -8°C° 0 mm 2 mps 633 mmHg 71%
    10:00 -6°C° 0 mm 2 mps 633 mmHg 69%
    11:00 -5°C° 0 mm 2 mps 634 mmHg 68%
    12:00 -3°C° 0 mm 2 mps 634 mmHg 67%
    13:00 -3°C° 0 mm 2 mps 633 mmHg 68%
    14:00 -1°C° 0 mm 1 mps 633 mmHg 69%
    15:00 -1°C° 0 mm 1 mps 633 mmHg 70%
    16:00 -3°C° 0 mm 1 mps 633 mmHg 72%
    17:00 -6°C° 0 mm 2 mps 633 mmHg 74%
    18:00 -8°C° 0 mm 2 mps 632 mmHg 76%
    19:00 -8°C° 0 mm 2 mps 633 mmHg 74%
    20:00 -8°C° 0 mm 2 mps 633 mmHg 72%
    21:00 -8°C° 0 mm 2 mps 633 mmHg 70%
    22:00 -9°C° 0 mm 2 mps 633 mmHg 70%
    23:00 -9°C° 0 mm 2 mps 633 mmHg 71%
    Show more